Time,TemperatureF,DewpointF,PressureIn,WindDirection,WindDirectionDegrees,WindSpeedMPH,WindSpeedGustMPH,Humidity,HourlyPrecipIn,Conditions,Clouds,dailyrainin,SoftwareType,DateUTC
2013-06-02 00:06:00,77.2,74.0,29.95,SSE,155,1.0,2.0,89,0.00,,,0.00,weatherlink.com 1.10,2013-06-02 05:06:00,
2013-06-02 00:21:00,77.0,74.0,29.96,SSE,148,1.0,2.0,89,0.00,,,0.00,weatherlink.com 1.10,2013-06-02 05:21:00,
2013-06-02 00:36:00,76.9,74.0,29.96,SSE,167,0.0,1.0,90,0.00,,,0.00,weatherlink.com 1.10,2013-06-02 05:36:00,
2013-06-02 00:51:00,76.8,74.0,29.95,SE,142,1.0,3.0,90,0.00,,,0.00,weatherlink.com 1.10,2013-06-02 05:51:00,
2013-06-02 01:07:00,76.6,74.0,29.94,SE,131,1.0,3.0,91,0.00,,,0.00,weatherlink.com 1.10,2013-06-02 06:07:00,
2013-06-02 01:22:00,76.4,74.0,29.94,SE,141,0.0,2.0,91,0.00,,,0.00,weatherlink.com 1.10,2013-06-02 06:22:00,
2013-06-02 01:37:00,76.3,74.0,29.95,SE,141,0.0,1.0,92,0.00,,,0.00,weatherlink.com 1.10,2013-06-02 06:37:00,
2013-06-02 01:52:00,76.2,74.0,29.95,SE,141,0.0,1.0,92,0.00,,,0.00,weatherlink.com 1.10,2013-06-02 06:52:00,
2013-06-02 02:07:00,76.2,74.0,29.95,SE,133,0.0,1.0,92,0.00,,,0.00,weatherlink.com 1.10,2013-06-02 07:07:00,
2013-06-02 02:22:00,76.2,74.0,29.96,SE,133,0.0,0.0,92,0.00,,,0.00,weatherlink.com 1.10,2013-06-02 07:22:00,
2013-06-02 02:37:00,75.9,74.0,29.96,SE,133,0.0,0.0,92,0.00,,,0.00,weatherlink.com 1.10,2013-06-02 07:37:00,
2013-06-02 02:52:00,75.5,73.0,29.95,SE,133,1.0,1.0,92,0.00,,,0.00,weatherlink.com 1.10,2013-06-02 07:52:00,
2013-06-02 03:07:00,75.2,73.0,29.96,SSE,163,0.0,1.0,93,0.00,,,0.00,weatherlink.com 1.10,2013-06-02 08:07:00,
2013-06-02 03:22:00,74.9,73.0,29.97,SSE,163,0.0,0.0,93,0.00,,,0.00,weatherlink.com 1.10,2013-06-02 08:22:00,
2013-06-02 03:37:00,74.7,73.0,29.97,SSE,163,0.0,0.0,93,0.00,,,0.00,weatherlink.com 1.10,2013-06-02 08:37:00,
2013-06-02 03:52:00,74.2,72.0,29.98,NNW,341,2.0,7.0,92,0.00,,,0.00,weatherlink.com 1.10,2013-06-02 08:52:00,
2013-06-02 04:07:00,71.8,67.0,29.98,NNE,32,3.0,7.0,85,0.00,,,0.00,weatherlink.com 1.10,2013-06-02 09:07:00,
2013-06-02 04:22:00,70.4,66.0,29.99,NNW,338,1.0,10.0,86,0.00,,,0.00,weatherlink.com 1.10,2013-06-02 09:22:00,
2013-06-02 04:37:00,68.9,66.0,30.00,NE,41,1.0,7.0,90,0.07,,,0.07,weatherlink.com 1.10,2013-06-02 09:37:00,
2013-06-02 04:52:00,67.8,66.0,30.00,NNE,30,0.0,4.0,93,0.29,,,0.29,weatherlink.com 1.10,2013-06-02 09:52:00,
2013-06-02 05:07:00,67.4,66.0,29.99,NNE,17,0.0,4.0,94,0.34,,,0.34,weatherlink.com 1.10,2013-06-02 10:07:00,
2013-06-02 05:22:00,67.3,66.0,30.00,NNE,24,1.0,5.0,94,0.37,,,0.37,weatherlink.com 1.10,2013-06-02 10:22:00,
2013-06-02 05:38:00,67.4,66.0,30.02,WNW,289,0.0,2.0,95,0.37,,,0.45,weatherlink.com 1.10,2013-06-02 10:38:00,
2013-06-02 05:52:00,67.2,66.0,30.03,East,94,2.0,6.0,95,0.21,,,0.50,weatherlink.com 1.10,2013-06-02 10:52:00,
2013-06-02 06:07:00,67.0,66.0,30.03,East,89,3.0,5.0,95,0.33,,,0.67,weatherlink.com 1.10,2013-06-02 11:07:00,
2013-06-02 06:22:00,66.9,66.0,30.03,North,350,0.0,1.0,95,0.40,,,0.78,weatherlink.com 1.10,2013-06-02 11:22:00,
2013-06-02 06:37:00,66.9,66.0,30.02,North,10,1.0,1.0,95,0.41,,,0.86,weatherlink.com 1.10,2013-06-02 11:37:00,
2013-06-02 06:52:00,66.7,65.0,30.01,SSE,154,1.0,3.0,95,0.43,,,0.94,weatherlink.com 1.10,2013-06-02 11:52:00,
2013-06-02 07:07:00,66.6,66.0,29.99,SE,146,1.0,3.0,96,0.27,,,0.95,weatherlink.com 1.10,2013-06-02 12:07:00,
2013-06-02 07:22:00,66.6,66.0,30.00,NNW,331,0.0,3.0,96,0.18,,,0.96,weatherlink.com 1.10,2013-06-02 12:22:00,
2013-06-02 07:37:00,66.8,66.0,29.99,SSE,150,0.0,1.0,96,0.11,,,0.97,weatherlink.com 1.10,2013-06-02 12:37:00,
2013-06-02 07:52:00,67.0,66.0,30.00,SE,143,1.0,2.0,96,0.03,,,0.97,weatherlink.com 1.10,2013-06-02 12:52:00,
2013-06-02 08:07:00,67.4,66.0,30.02,SSW,200,0.0,1.0,96,0.02,,,0.98,weatherlink.com 1.10,2013-06-02 13:07:00,
2013-06-02 08:22:00,67.7,67.0,30.03,West,265,1.0,1.0,96,0.02,,,0.98,weatherlink.com 1.10,2013-06-02 13:22:00,
2013-06-02 08:37:00,67.6,67.0,30.04,West,264,1.0,4.0,96,0.01,,,0.98,weatherlink.com 1.10,2013-06-02 13:37:00,
2013-06-02 08:52:00,67.4,66.0,30.01,WSW,239,0.0,2.0,95,0.04,,,1.01,weatherlink.com 1.10,2013-06-02 13:52:00,
2013-06-02 09:07:00,67.6,67.0,30.00,South,180,2.0,2.0,96,0.04,,,1.02,weatherlink.com 1.10,2013-06-02 14:07:00,
2013-06-02 09:22:00,67.9,67.0,29.98,SSE,155,1.0,3.0,96,0.05,,,1.03,weatherlink.com 1.10,2013-06-02 14:22:00,
2013-06-02 09:37:00,68.0,67.0,29.98,SSE,159,3.0,3.0,96,0.05,,,1.03,weatherlink.com 1.10,2013-06-02 14:37:00,
2013-06-02 09:52:00,68.1,67.0,29.96,SSE,152,1.0,3.0,96,0.02,,,1.03,weatherlink.com 1.10,2013-06-02 14:52:00,
2013-06-02 10:07:00,68.2,67.0,29.95,SE,141,0.0,3.0,96,0.01,,,1.03,weatherlink.com 1.10,2013-06-02 15:07:00,
2013-06-02 10:22:00,68.5,67.0,29.92,South,177,1.0,3.0,96,0.00,,,1.03,weatherlink.com 1.10,2013-06-02 15:22:00,
2013-06-02 10:37:00,69.9,69.0,29.94,NNW,335,1.0,2.0,96,0.00,,,1.03,weatherlink.com 1.10,2013-06-02 15:37:00,
2013-06-02 10:52:00,71.7,69.0,29.93,SSW,211,1.0,3.0,92,0.00,,,1.03,weatherlink.com 1.10,2013-06-02 15:52:00,
2013-06-02 11:07:00,74.4,71.0,29.93,WSW,256,2.0,4.0,88,0.01,,,1.04,weatherlink.com 1.10,2013-06-02 16:07:00,
2013-06-02 11:22:00,77.0,71.0,29.93,WSW,257,1.0,4.0,82,0.01,,,1.04,weatherlink.com 1.10,2013-06-02 16:22:00,
2013-06-02 11:38:00,79.2,73.0,29.93,NW,321,1.0,4.0,81,0.01,,,1.04,weatherlink.com 1.10,2013-06-02 16:38:00,
2013-06-02 11:53:00,79.6,72.0,29.94,WSW,253,1.0,6.0,77,0.01,,,1.04,weatherlink.com 1.10,2013-06-02 16:53:00,
2013-06-02 12:08:00,81.0,73.0,29.94,WSW,248,1.0,3.0,76,0.00,,,1.04,weatherlink.com 1.10,2013-06-02 17:08:00,
2013-06-02 12:23:00,81.6,72.0,29.95,WNW,294,3.0,9.0,72,0.00,,,1.04,weatherlink.com 1.10,2013-06-02 17:23:00,
2013-06-02 12:38:00,82.8,73.0,29.95,West,263,1.0,4.0,71,0.00,,,1.04,weatherlink.com 1.10,2013-06-02 17:38:00,
2013-06-02 12:53:00,82.8,71.0,29.95,WSW,240,4.0,7.0,67,0.00,,,1.04,weatherlink.com 1.10,2013-06-02 17:53:00,
2013-06-02 13:08:00,83.4,72.0,29.95,West,276,1.0,6.0,68,0.00,,,1.04,weatherlink.com 1.10,2013-06-02 18:08:00,
2013-06-02 13:23:00,83.7,73.0,29.95,NNW,342,4.0,4.0,70,0.00,,,1.04,weatherlink.com 1.10,2013-06-02 18:23:00,
2013-06-02 13:38:00,83.3,72.0,29.95,West,276,3.0,5.0,69,0.00,,,1.04,weatherlink.com 1.10,2013-06-02 18:38:00,
2013-06-02 13:53:00,83.6,72.0,29.94,WNW,291,1.0,5.0,68,0.00,,,1.04,weatherlink.com 1.10,2013-06-02 18:53:00,
2013-06-02 14:08:00,82.7,73.0,29.94,WNW,293,2.0,5.0,72,0.00,,,1.04,weatherlink.com 1.10,2013-06-02 19:08:00,
2013-06-02 14:23:00,81.2,72.0,29.94,NNW,341,4.0,8.0,73,0.00,,,1.04,weatherlink.com 1.10,2013-06-02 19:23:00,
2013-06-02 14:38:00,82.1,72.0,29.93,West,281,1.0,6.0,72,0.00,,,1.04,weatherlink.com 1.10,2013-06-02 19:38:00,
2013-06-02 14:53:00,83.0,73.0,29.93,NW,306,1.0,7.0,71,0.00,,,1.04,weatherlink.com 1.10,2013-06-02 19:53:00,
2013-06-02 15:08:00,83.4,72.0,29.93,WNW,290,1.0,5.0,69,0.00,,,1.04,weatherlink.com 1.10,2013-06-02 20:08:00,
2013-06-02 15:23:00,82.2,72.0,29.93,NE,56,2.0,7.0,71,0.00,,,1.04,weatherlink.com 1.10,2013-06-02 20:23:00,
2013-06-02 15:38:00,82.2,72.0,29.92,NNE,30,3.0,6.0,71,0.00,,,1.04,weatherlink.com 1.10,2013-06-02 20:38:00,
2013-06-02 15:53:00,83.6,72.0,29.93,WNW,283,2.0,3.0,68,0.00,,,1.04,weatherlink.com 1.10,2013-06-02 20:53:00,
2013-06-02 16:08:00,83.8,72.0,29.93,West,269,1.0,4.0,67,0.00,,,1.04,weatherlink.com 1.10,2013-06-02 21:08:00,
2013-06-02 16:23:00,82.8,72.0,29.92,North,1,3.0,8.0,69,0.00,,,1.04,weatherlink.com 1.10,2013-06-02 21:23:00,
2013-06-02 16:38:00,83.3,71.0,29.92,NW,304,1.0,6.0,66,0.00,,,1.04,weatherlink.com 1.10,2013-06-02 21:38:00,
2013-06-02 16:53:00,82.6,71.0,29.91,WNW,290,2.0,6.0,68,0.00,,,1.04,weatherlink.com 1.10,2013-06-02 21:53:00,
2013-06-02 17:08:00,82.1,71.0,29.91,East,79,1.0,4.0,69,0.00,,,1.04,weatherlink.com 1.10,2013-06-02 22:08:00,
2013-06-02 17:23:00,82.4,72.0,29.90,NNE,18,2.0,3.0,70,0.00,,,1.04,weatherlink.com 1.10,2013-06-02 22:23:00,
2013-06-02 17:38:00,82.0,72.0,29.89,ENE,57,3.0,4.0,72,0.00,,,1.04,weatherlink.com 1.10,2013-06-02 22:38:00,
2013-06-02 17:53:00,81.8,72.0,29.89,North,8,1.0,4.0,71,0.00,,,1.04,weatherlink.com 1.10,2013-06-02 22:53:00,
2013-06-02 18:08:00,81.4,72.0,29.89,NNE,24,1.0,1.0,72,0.00,,,1.04,weatherlink.com 1.10,2013-06-02 23:08:00,
2013-06-02 18:23:00,81.1,72.0,29.89,West,276,0.0,1.0,74,0.00,,,1.04,weatherlink.com 1.10,2013-06-02 23:23:00,
2013-06-02 18:38:00,80.7,72.0,29.89,North,4,1.0,1.0,74,0.00,,,1.04,weatherlink.com 1.10,2013-06-02 23:38:00,
2013-06-02 18:53:00,80.3,72.0,29.89,North,6,0.0,0.0,76,0.00,,,1.04,weatherlink.com 1.10,2013-06-02 23:53:00,
2013-06-02 19:08:00,80.1,72.0,29.88,NNE,25,0.0,2.0,77,0.00,,,1.04,weatherlink.com 1.10,2013-06-03 00:08:00,
2013-06-02 19:23:00,79.7,73.0,29.88,North,353,0.0,2.0,79,0.00,,,1.04,weatherlink.com 1.10,2013-06-03 00:23:00,
2013-06-02 19:38:00,79.6,73.0,29.88,North,353,0.0,0.0,79,0.00,,,1.04,weatherlink.com 1.10,2013-06-03 00:38:00,
2013-06-02 19:53:00,78.2,73.0,29.88,North,353,0.0,0.0,83,0.00,,,1.04,weatherlink.com 1.10,2013-06-03 00:53:00,
2013-06-02 20:08:00,77.3,73.0,29.88,North,353,0.0,0.0,86,0.00,,,1.04,weatherlink.com 1.10,2013-06-03 01:08:00,
2013-06-02 20:23:00,76.6,72.0,29.89,North,353,0.0,0.0,86,0.00,,,1.04,weatherlink.com 1.10,2013-06-03 01:23:00,
2013-06-02 20:38:00,76.1,72.0,29.89,North,351,0.0,0.0,87,0.00,,,1.04,weatherlink.com 1.10,2013-06-03 01:38:00,
2013-06-02 20:53:00,75.8,72.0,29.89,North,352,0.0,0.0,88,0.00,,,1.04,weatherlink.com 1.10,2013-06-03 01:53:00,
2013-06-02 21:08:00,75.7,72.0,29.90,North,351,0.0,0.0,89,0.00,,,1.04,weatherlink.com 1.10,2013-06-03 02:08:00,
2013-06-02 21:23:00,75.3,72.0,29.91,North,352,0.0,0.0,90,0.00,,,1.04,weatherlink.com 1.10,2013-06-03 02:23:00,
2013-06-02 21:38:00,74.7,72.0,29.91,North,352,0.0,0.0,90,0.00,,,1.04,weatherlink.com 1.10,2013-06-03 02:38:00,
2013-06-02 21:53:00,74.3,72.0,29.91,North,352,0.0,0.0,91,0.00,,,1.04,weatherlink.com 1.10,2013-06-03 02:53:00,
2013-06-02 22:08:00,73.9,72.0,29.91,North,352,0.0,0.0,92,0.00,,,1.04,weatherlink.com 1.10,2013-06-03 03:08:00,
2013-06-02 22:23:00,73.7,72.0,29.91,North,352,0.0,0.0,93,0.00,,,1.04,weatherlink.com 1.10,2013-06-03 03:23:00,
2013-06-02 22:38:00,73.5,71.0,29.92,North,352,0.0,0.0,92,0.00,,,1.04,weatherlink.com 1.10,2013-06-03 03:38:00,
2013-06-02 22:53:00,73.2,71.0,29.92,North,351,0.0,0.0,93,0.00,,,1.04,weatherlink.com 1.10,2013-06-03 03:53:00,
2013-06-02 23:08:00,73.1,71.0,29.92,North,352,0.0,0.0,93,0.00,,,1.04,weatherlink.com 1.10,2013-06-03 04:08:00,
2013-06-02 23:23:00,73.1,71.0,29.92,North,352,1.0,1.0,93,0.00,,,1.04,weatherlink.com 1.10,2013-06-03 04:23:00,
2013-06-02 23:38:00,72.7,71.0,29.92,North,352,0.0,0.0,94,0.00,,,1.04,weatherlink.com 1.10,2013-06-03 04:38:00,
2013-06-02 23:53:00,72.4,71.0,29.92,North,352,0.0,0.0,94,0.00,,,1.04,weatherlink.com 1.10,2013-06-03 04:53:00,